When you browse on this site, cookies collect data to enhance your experience and personalize the content and advertising you see.
Visit our Privacy Policy to learn more. By continuing to use the site, you agree to this use of cookies and data.
  • Em Portugal
  • Lista de países
  • Para 7 dias
  • Temperatura da água
  • Mapas de satélite
  • Mapa do tempo
  • Widgets de tempo
  • user-avatar
    Iniciar Sessão

    Previsão horária em Snezhnoe

    Hoje, 18 Fevereiro, Segunda-feira

    Tempo Temperatura Precipitação Vento Pressão Humidade
    00:00 -2°C° 0 mm 6 m/s 731 mmHg 93%
    01:00 -2°C° 0 mm 6 m/s 731 mmHg 92%
    02:00 -3°C° 0 mm 6 m/s 732 mmHg 90%
    03:00 -2°C° 0 mm 5 m/s 731 mmHg 89%
    04:00 -2°C° 0 mm 5 m/s 731 mmHg 88%
    05:00 -2°C° 0 mm 5 m/s 732 mmHg 88%
    06:00 -2°C° 0 mm 5 m/s 732 mmHg 87%
    07:00 -4°C° 0 mm 6 m/s 733 mmHg 88%
    08:00 -5°C° 0 mm 6 m/s 733 mmHg 88%
    09:00 -5°C° 0 mm 6 m/s 734 mmHg 89%
    10:00 -5°C° 0 mm 6 m/s 734 mmHg 88%
    11:00 -6°C° 0 mm 7 m/s 735 mmHg 87%
    12:00 -4°C° 0 mm 7 m/s 735 mmHg 85%
    13:00 -4°C° 0 mm 7 m/s 736 mmHg 84%
    14:00 -4°C° 0 mm 7 m/s 736 mmHg 83%
    15:00 -4°C° 0 mm 7 m/s 736 mmHg 82%
    16:00 -5°C° 0 mm 6 m/s 737 mmHg 82%
    17:00 -5°C° 0 mm 6 m/s 737 mmHg 83%
    18:00 -6°C° 0 mm 6 m/s 738 mmHg 83%
    19:00 -6°C° 0 mm 5 m/s 738 mmHg 83%
    20:00 -7°C° 0 mm 5 m/s 739 mmHg 84%
    21:00 -7°C° 0 mm 5 m/s 739 mmHg 84%
    22:00 -8°C° 0 mm 4 m/s 740 mmHg 85%
    23:00 -9°C° 0 mm 4 m/s 740 mmHg 86%

    Amanhã, 19 Fevereiro, Terça-feira

    Tempo Temperatura Precipitação Vento Pressão Humidade
    00:00 -9°C° 0 mm 3 m/s 740 mmHg 87%
    01:00 -9°C° 0 mm 3 m/s 741 mmHg 88%
    02:00 -10°C° 0 mm 3 m/s 741 mmHg 90%
    03:00 -12°C° 0 mm 3 m/s 742 mmHg 92%
    04:00 -12°C° 0 mm 3 m/s 742 mmHg 92%
    05:00 -12°C° 0 mm 3 m/s 742 mmHg 92%
    06:00 -13°C° 0 mm 3 m/s 743 mmHg 92%
    07:00 -12°C° 0 mm 2 m/s 743 mmHg 92%
    08:00 -10°C° 0 mm 2 m/s 744 mmHg 91%
    09:00 -10°C° 0 mm 2 m/s 744 mmHg 91%
    10:00 -9°C° 0 mm 2 m/s 744 mmHg 88%
    11:00 -7°C° 0 mm 2 m/s 745 mmHg 84%
    12:00 -4°C° 0 mm 1 m/s 745 mmHg 81%
    13:00 -4°C° 0 mm 1 m/s 745 mmHg 79%
    14:00 -3°C° 0 mm 1 m/s 745 mmHg 77%
    15:00 -3°C° 0 mm 1 m/s 745 mmHg 75%
    16:00 -4°C° 0 mm 1 m/s 745 mmHg 79%
    17:00 -6°C° 0 mm 0 m/s 745 mmHg 82%
    18:00 -7°C° 0 mm 0 m/s 744 mmHg 85%
    19:00 -8°C° 0 mm 0 m/s 744 mmHg 85%
    20:00 -8°C° 0 mm 1 m/s 744 mmHg 84%
    21:00 -8°C° 0 mm 1 m/s 744 mmHg 84%
    22:00 -8°C° 0 mm 1 m/s 744 mmHg 84%
    23:00 -8°C° 0 mm 1 m/s 744 mmHg 83%

    Depois de amanhã, 20 Fevereiro, Quarta-feira

    Tempo Temperatura Precipitação Vento Pressão Humidade
    00:00 -9°C° 0 mm 2 m/s 744 mmHg 83%
    01:00 -9°C° 0 mm 2 m/s 743 mmHg 82%
    02:00 -9°C° 0 mm 2 m/s 743 mmHg 82%
    03:00 -9°C° 0 mm 2 m/s 743 mmHg 81%
    04:00 -9°C° 0 mm 2 m/s 742 mmHg 81%
    05:00 -9°C° 0 mm 2 m/s 742 mmHg 80%
    06:00 -9°C° 0 mm 2 m/s 741 mmHg 79%
    07:00 -8°C° 0 mm 2 m/s 741 mmHg 80%
    08:00 -8°C° 0 mm 2 m/s 741 mmHg 80%
    09:00 -7°C° 0 mm 2 m/s 741 mmHg 80%
    10:00 -6°C° 0 mm 3 m/s 741 mmHg 78%
    11:00 -5°C° 0 mm 4 m/s 740 mmHg 75%
    12:00 -3°C° 0 mm 4 m/s 740 mmHg 72%
    13:00 -3°C° 0 mm 4 m/s 740 mmHg 73%
    14:00 -2°C° 0 mm 4 m/s 739 mmHg 74%
    15:00 -2°C° 0 mm 4 m/s 739 mmHg 75%
    16:00 -3°C° 0 mm 4 m/s 739 mmHg 78%
    17:00 -4°C° 0 mm 4 m/s 738 mmHg 80%
    18:00 -5°C° 0 mm 3 m/s 738 mmHg 83%
    19:00 -5°C° 0 mm 3 m/s 738 mmHg 86%
    20:00 -5°C° 0 mm 3 m/s 738 mmHg 89%
    21:00 -5°C° 0 mm 3 m/s 737 mmHg 92%
    22:00 -5°C° 0 mm 3 m/s 737 mmHg 92%
    23:00 -5°C° 0 mm 3 m/s 737 mmHg 92%

    21 Fevereiro, Quinta-feira

    Tempo Temperatura Precipitação Vento Pressão Humidade
    00:00 -4°C° 0 mm 3 m/s 737 mmHg 92%
    01:00 -4°C° 0.1 mm 3 m/s 736 mmHg 91%
    02:00 -4°C° 0.1 mm 3 m/s 736 mmHg 90%
    03:00 -2°C° 0.1 mm 3 m/s 736 mmHg 90%
    04:00 -3°C° 0 mm 4 m/s 736 mmHg 89%
    05:00 -3°C° 0 mm 4 m/s 735 mmHg 89%
    06:00 -3°C° 0 mm 4 m/s 735 mmHg 89%
    07:00 -3°C° 0 mm 4 m/s 735 mmHg 91%
    08:00 -2°C° 0 mm 4 m/s 735 mmHg 93%
    09:00 -2°C° 0 mm 5 m/s 735 mmHg 95%
    10:00 -1°C° 0 mm 5 m/s 735 mmHg 96%
    11:00 -1°C° 0 mm 5 m/s 735 mmHg 97%
    12:00 -1°C° 0 mm 5 m/s 735 mmHg 98%
    13:00 -1°C° 0 mm 5 m/s 735 mmHg 95%
    14:00 0°C° 0 mm 4 m/s 735 mmHg 93%
    15:00 0°C° 0 mm 4 m/s 735 mmHg 90%
    16:00 0°C° 0 mm 4 m/s 735 mmHg 88%
    17:00 0°C° 0 mm 4 m/s 735 mmHg 86%
    18:00 -1°C° 0 mm 5 m/s 735 mmHg 85%
    19:00 -1°C° 0.1 mm 5 m/s 735 mmHg 84%
    20:00 -1°C° 0.1 mm 5 m/s 735 mmHg 83%
    21:00 -2°C° 0.1 mm 5 m/s 735 mmHg 82%
    22:00 -2°C° 0 mm 5 m/s 735 mmHg 84%
    23:00 -4°C° 0 mm 5 m/s 735 mmHg 85%

    22 Fevereiro, Sexta-feira

    Tempo Temperatura Precipitação Vento Pressão Humidade
    00:00 -3°C° 0 mm 4 m/s 736 mmHg 87%
    01:00 -5°C° 0 mm 4 m/s 736 mmHg 86%
    02:00 -7°C° 0 mm 4 m/s 736 mmHg 85%
    03:00 -8°C° 0 mm 4 m/s 736 mmHg 84%
    04:00 -7°C° 0 mm 3 m/s 736 mmHg 84%
    05:00 -8°C° 0 mm 3 m/s 737 mmHg 84%
    06:00 -8°C° 0 mm 3 m/s 737 mmHg 84%
    07:00 -8°C° 0 mm 3 m/s 737 mmHg 83%
    08:00 -8°C° 0 mm 3 m/s 738 mmHg 82%
    09:00 -7°C° 0 mm 3 m/s 738 mmHg 81%
    10:00 -7°C° 0 mm 3 m/s 738 mmHg 79%
    11:00 -7°C° 0 mm 4 m/s 738 mmHg 78%
    12:00 -5°C° 0 mm 4 m/s 738 mmHg 76%
    13:00 -5°C° 0 mm 4 m/s 738 mmHg 76%
    14:00 -5°C° 0 mm 4 m/s 738 mmHg 77%
    15:00 -5°C° 0 mm 4 m/s 738 mmHg 77%
    16:00 -7°C° 0 mm 4 m/s 738 mmHg 78%
    17:00 -8°C° 0 mm 4 m/s 738 mmHg 80%
    18:00 -8°C° 0 mm 4 m/s 739 mmHg 81%
    19:00 -10°C° 0 mm 5 m/s 739 mmHg 82%
    20:00 -11°C° 0 mm 5 m/s 740 mmHg 82%
    21:00 -11°C° 0 mm 5 m/s 740 mmHg 83%
    22:00 -12°C° 0 mm 6 m/s 741 mmHg 82%
    23:00 -14°C° 0 mm 6 m/s 741 mmHg 82%

    23 Fevereiro, Sábado

    Tempo Temperatura Precipitação Vento Pressão Humidade
    00:00 -14°C° 0 mm 6 m/s 742 mmHg 81%
    01:00 -14°C° 0 mm 6 m/s 742 mmHg 81%
    02:00 -15°C° 0 mm 6 m/s 742 mmHg 82%
    03:00 -15°C° 0 mm 6 m/s 742 mmHg 82%
    04:00 -15°C° 0 mm 6 m/s 743 mmHg 81%
    05:00 -15°C° 0 mm 6 m/s 743 mmHg 80%
    06:00 -15°C° 0 mm 7 m/s 743 mmHg 79%
    07:00 -17°C° 0 mm 7 m/s 744 mmHg 79%
    08:00 -17°C° 0 mm 7 m/s 744 mmHg 78%
    09:00 -17°C° 0 mm 7 m/s 745 mmHg 78%
    10:00 -15°C° 0 mm 7 m/s 745 mmHg 77%
    11:00 -15°C° 0 mm 7 m/s 745 mmHg 75%
    12:00 -14°C° 0 mm 7 m/s 745 mmHg 74%
    13:00 -14°C° 0 mm 6 m/s 745 mmHg 74%
    14:00 -14°C° 0 mm 6 m/s 745 mmHg 73%
    15:00 -14°C° 0 mm 6 m/s 745 mmHg 72%
    16:00 -13°C° 0 mm 5 m/s 745 mmHg 74%
    17:00 -14°C° 0 mm 4 m/s 745 mmHg 76%
    18:00 -13°C° 0 mm 3 m/s 745 mmHg 78%
    19:00 -13°C° 0 mm 3 m/s 745 mmHg 79%
    20:00 -14°C° 0 mm 3 m/s 745 mmHg 80%
    21:00 -13°C° 0 mm 2 m/s 745 mmHg 81%
    22:00 -13°C° 0 mm 2 m/s 745 mmHg 81%
    23:00 -11°C° 0 mm 1 m/s 744 mmHg 81%
    Mostrar mais